[Iaude] MPEC G06: 2024 FX3 [a=2.13,e=0.57,i=5.6,H=25.5]
    mpec at cfa.harvard.edu 
    mpec at cfa.harvard.edu
       
    Tue Apr  2 11:24:38 EDT 2024
    
    
  
M.P.E.C. 2024-G06                                 Issued 2024 April 2, 15:23 UT
     The Minor Planet Electronic Circulars contain information on unusual
         minor planets, routine data on comets and natural satellites,
         and occasional editorial announcements.  They are published
    on behalf of Division F of the International Astronomical Union by the
          Minor Planet Center, Smithsonian Astrophysical Observatory,
                          Cambridge, MA 02138, U.S.A.
			  
             Prepared using the Tamkin Foundation Computer Network
                              MPC at CFA.HARVARD.EDU
            URL https://www.minorplanetcenter.net/    ISSN 1523-6714
                                    2024 FX3                                    
Observations:
     K24F03X  C2024 03 30.33267811 22 37.446+05 54 00.12         21.60wXEG006F52
     K24F03X* C2024 03 30.33332811 22 37.296+05 53 58.19         21.64wXEG006F52
     K24F03X  C2024 03 30.34517211 22 34.793+05 53 25.72         21.69wXEG006F52
     K24F03X  C2024 03 30.35639111 22 32.380+05 52 54.47         21.51wXEG006F52
     K24F03X  C2024 03 30.35704211 22 32.245+05 52 52.81         21.05wXEG006F52
     K24F03X  C2024 03 30.36834711 22 29.819+05 52 21.88         21.23wXEG006F52
     K24F03X  C2024 03 30.48167611 22 05.406+05 47 01.70         20.97GVEG006F51
     K24F03X  C2024 03 30.48249711 22 05.266+05 46 59.48         21.55GVEG006F51
     K24F03X |C2024 03 31.16885011 19 57.400+05 14 11.50         21.2 GVEG006807
     K24F03X KC2024 03 31.17076911 20 00.668+05 12 24.23         21.65GVEG006I52
     K24F03X |C2024 03 31.17435011 19 56.080+05 13 54.40         21.2 GVEG006807
     K24F03X KC2024 03 31.17671811 19 59.315+05 12 05.69         21.47GVEG006I52
     K24F03X KC2024 03 31.17876011 19 58.814+05 11 59.39         21.73GVEG006I52
     K24F03X |C2024 03 31.17985411 19 54.830+05 13 36.80         21.1 GVEG006807
     K24F03X KC2024 03 31.18080211 19 58.382+05 11 52.80         21.00GVEG006I52
     K24F03X  C2024 03 31.35067511 19 22.945+05 03 08.58         21.22GVEG006F51
     K24F03X  C2024 03 31.35132211 19 22.783+05 03 06.34         21.60GVEG006F51
     K24F03X  C2024 04 02.41224211 11 13.686+02 50 22.62         21.10wXEG006F51
     K24F03X  C2024 04 02.42476911 11 09.695+02 49 25.20         20.81wXEG006F51
     K24F03X  C2024 04 02.43729911 11 05.743+02 48 27.53         21.18wXEG006F51
Observer details:
807 Cerro Tololo Observatory, La Serena.  Observers T. Linder, R. Holmes.
    0.61-m f/6.8 Ritchey-Chretien + CCD.
F51 Pan-STARRS 1, Haleakala.  Observers J. Herman, T. Lowe, P. Minguez, A.
    Schultz, I. Smith.  Measurers K. Chambers, T. de Boer, J. Fairlamb, H.
    Gao, M. Huber, C.-C. Lin, E. Magnier, Y. Ramanjooloo, R. Wainscoat, R.
    Weryk.  1.8-m Ritchey-Chretien + CCD.
F52 Pan-STARRS 2, Haleakala.  Observers J. Herman, T. Lowe, P. Minguez, A.
    Schultz, I. Smith.  Measurers K. Chambers, T. de Boer, J. Fairlamb, H.
    Gao, M. Huber, C.-C. Lin, E. Magnier, Y. Ramanjooloo, R. Wainscoat, R.
    Weryk.  1.8-m Ritchey-Chretien + CCD.
I52 Steward Observatory, Mt. Lemmon Station.  Observers T. Beuden, H.
    Groeller.  Measurers T. Beuden, V. F. Carvajal, D. Fay, J. B. Fazekas, D.
    C. Fuls, A. R. Gibbs, A. D. Grauer, H. Groeller, J. K. Hogan, R. A.
    Kowalski, S. M. Larson, G. J. Leonard, D. Rankin, R. L. Seaman, F. C.
    Shelly, K. W. Wierzchos.  1.0-m prime focus + CCD.
Orbital elements:
2024 FX3                                                 Earth MOID = 0.0220 AU
Epoch 2024 Mar. 31.0 TT = JDT 2460400.5                 Veres                   
M 345.91914              (2000.0)            P               Q                  
n   0.31692597     Peri.  235.01734     -0.43029335     +0.90254179             
a   2.1305783      Node     9.53830     -0.79281647     -0.36921964             
e   0.5723374      Incl.    5.64783     -0.43161287     -0.22157431             
P   3.11           H   25.56          G   0.15           U   8                  
Residuals in seconds of arc
240330 F52  0.2+  0.1-    240330 F51  0.3+  0.0     240331 I52  0.1+  0.1-
240330 F52  0.0   0.2-    240331 807  0.0   0.0     240331 F51  0.4+  0.2+
240330 F52  0.3+  0.0     240331 I52  0.0   0.1-    240331 F51  0.3+  0.0
240330 F52  0.2+  0.3-    240331 807  0.5-  0.2+    240402 F51  0.0   0.1-
240330 F52  0.2+  0.1-    240331 I52  0.0   0.1-    240402 F51  0.0   0.1+
240330 F52  0.3+  0.3+    240331 I52  0.5-  0.1+
240330 F51  0.2-  0.1-    240331 807  0.0   0.0
Ephemeris:
2024 FX3                 a,e,i = 2.13, 0.57, 6                   q = 0.9112
Date    TT    R. A. (2000) Decl.     Delta      r    Elong.  Phase     V
2024 03 03    11 51 45.8 +11 29 10   0.3137  1.2973   165.4    11.1    24.3
...
2024 03 18    11 43 39.8 +10 29 57   0.1860  1.1790   170.3     8.2    22.8
...
2024 03 26    11 32 47.8 +08 23 13   0.1265  1.1197   164.2    14.1    22.1
...
2024 04 01    11 17 04.0 +04 26 41   0.08494 1.0779   157.0    21.3    21.4
2024 04 02    11 13 05.2 +03 21 24   0.07829 1.0712   155.5    22.8    21.3
2024 04 03    11 08 26.9 +02 03 41   0.07173 1.0646   153.8    24.5    21.1
...
2024 04 09    10 07 37.0 -15 21 34   0.03593 1.0270   134.4    44.1    20.1
...
2024 04 17    02 29 10.5 -43 47 51   0.03697 0.9832    55.4   122.9    23.4
...
2024 05 02    00 32 54.0 -23 28 10   0.1328  0.9267    49.3   124.5    26.2
M. P. C. Staff               (C) Copyright 2024 MPC           M.P.E.C. 2024-G06
    
    
More information about the Iaude
mailing list